Starlink 35005

operational
NORAD ID: 65456 Int'l Des: 2025-194 Owner: SPXS Country: US Constellation: starlink
LEOCIRCULARRETROGRADE

关于 Starlink 35005

正在加载描述...

实时位置

正在加载3D地球...

即将过境

高度历史

Altitude vs Time

uPlot chart will show altitude changes over time

两行轨道根数

1 65456U 25194Y 25342.58515725 .00011209 00000-0 77950-3 0 9995
2 65456 97.6020 194.6636 0002703 79.0388 281.1142 15.05662379 15946
Epoch: Dec 8, 2025 • Age: 11 hours

当前状态

高度 551.8 km
速度 7.59 km/s
星下点 27.80°N, 93.09°E
发射日期 Sep 3, 2025
运行时间 0.2 years
类型 internet

技术详情

分类 Payload
质量 575.00 kg
干质量 530.00 kg
总质量 575.00 kg
长度 0.30 m
直径 4.10 m
跨度 29.00 m
形状 Box + pan
制造商 SPXS
平台类型 Starlink V2MO
阶段状态 In Orbit
所有者/国家 SPXS/US

大型星座

Loading constellations...